Time,TemperatureF,DewpointF,PressureIn,WindDirection,WindDirectionDegrees,WindSpeedMPH,WindSpeedGustMPH,Humidity,HourlyPrecipIn,Conditions,Clouds,dailyrainin,SoftwareType,DateUTC
2013-10-01 00:02:00,69.2,67.7,30.00,ENE,68,0.0,0.0,95,0.00,,---,0.00,VWS V14.01,2013-10-01 05:02:00,
2013-10-01 00:07:00,69.2,68.0,30.00,ENE,68,0.0,0.0,96,0.00,,---,0.00,VWS V14.01,2013-10-01 05:07:00,
2013-10-01 00:12:00,69.2,68.0,30.00,SE,135,0.0,0.0,96,0.00,,---,0.00,VWS V14.01,2013-10-01 05:12:00,
2013-10-01 00:17:00,69.2,68.0,30.00,ESE,112,0.0,0.0,96,0.00,,---,0.00,VWS V14.01,2013-10-01 05:17:00,
2013-10-01 00:22:00,69.2,68.0,30.00,ESE,112,0.0,1.1,96,0.00,,---,0.00,VWS V14.01,2013-10-01 05:22:00,
2013-10-01 00:27:00,69.2,68.0,30.00,ESE,112,0.0,0.0,96,0.00,,---,0.00,VWS V14.01,2013-10-01 05:27:00,
2013-10-01 00:32:00,69.0,67.8,30.00,ESE,112,0.0,0.0,96,0.00,,---,0.00,VWS V14.01,2013-10-01 05:32:00,
2013-10-01 00:37:00,69.0,67.8,30.00,ESE,112,0.0,0.0,96,0.00,,---,0.00,VWS V14.01,2013-10-01 05:37:00,
2013-10-01 00:42:00,69.0,67.8,30.00,ESE,112,0.0,0.0,96,0.00,,---,0.00,VWS V14.01,2013-10-01 05:42:00,
2013-10-01 00:47:00,69.0,67.8,30.00,ESE,112,0.0,0.0,96,0.00,,---,0.00,VWS V14.01,2013-10-01 05:47:00,
2013-10-01 00:53:00,69.0,67.8,30.00,ENE,68,0.0,0.0,96,0.00,,---,0.00,VWS V14.01,2013-10-01 05:53:00,
2013-10-01 00:58:00,69.0,67.8,30.00,NNE,22,0.0,0.0,96,0.00,,---,0.00,VWS V14.01,2013-10-01 05:58:00,
2013-10-01 01:03:00,69.0,67.8,30.00,NE,45,0.0,0.0,96,0.00,,---,0.00,VWS V14.01,2013-10-01 06:03:00,
2013-10-01 01:08:00,69.0,67.8,30.00,ENE,68,0.0,0.0,96,0.00,,---,0.00,VWS V14.01,2013-10-01 06:08:00,
2013-10-01 01:13:00,68.8,67.9,30.00,ENE,68,0.0,0.0,97,0.00,,---,0.00,VWS V14.01,2013-10-01 06:13:00,
2013-10-01 01:18:00,68.8,67.9,30.00,ENE,68,0.0,0.0,97,0.00,,---,0.00,VWS V14.01,2013-10-01 06:18:00,
2013-10-01 01:23:00,68.8,67.9,30.00,ENE,68,0.0,0.0,97,0.00,,---,0.00,VWS V14.01,2013-10-01 06:23:00,
2013-10-01 01:28:00,68.8,67.9,30.00,ENE,68,0.0,0.0,97,0.00,,---,0.00,VWS V14.01,2013-10-01 06:28:00,
2013-10-01 01:33:00,68.8,67.9,30.00,SE,135,0.0,0.0,97,0.00,,---,0.00,VWS V14.01,2013-10-01 06:33:00,
2013-10-01 01:38:00,68.8,67.9,30.00,ESE,112,0.0,0.0,97,0.00,,---,0.00,VWS V14.01,2013-10-01 06:38:00,
2013-10-01 01:43:00,68.8,67.9,30.00,NNE,22,0.0,0.0,97,0.00,,---,0.00,VWS V14.01,2013-10-01 06:43:00,
2013-10-01 01:48:00,68.8,67.9,30.00,ENE,68,0.0,0.0,97,0.00,,---,0.00,VWS V14.01,2013-10-01 06:48:00,
2013-10-01 01:53:00,68.8,67.9,30.00,North,0,0.0,0.0,97,0.00,,---,0.00,VWS V14.01,2013-10-01 06:53:00,
2013-10-01 01:58:00,68.8,67.9,30.00,North,0,0.0,0.0,97,0.00,,---,0.00,VWS V14.01,2013-10-01 06:58:00,
2013-10-01 02:03:00,68.6,67.8,30.00,North,0,0.0,0.0,97,0.00,,---,0.00,VWS V14.01,2013-10-01 07:03:00,
2013-10-01 02:08:00,68.6,67.8,30.00,North,0,0.0,0.0,97,0.00,,---,0.00,VWS V14.01,2013-10-01 07:08:00,
2013-10-01 02:13:00,68.6,67.8,30.00,North,0,0.0,0.0,97,0.00,,---,0.00,VWS V14.01,2013-10-01 07:13:00,
2013-10-01 02:18:00,68.6,67.8,30.00,North,0,0.0,0.0,97,0.00,,---,0.00,VWS V14.01,2013-10-01 07:18:00,
2013-10-01 02:23:00,68.6,67.8,30.00,North,0,0.0,0.0,97,0.00,,---,0.00,VWS V14.01,2013-10-01 07:23:00,
2013-10-01 02:28:00,68.6,67.8,30.00,North,0,0.0,0.0,97,0.00,,---,0.00,VWS V14.01,2013-10-01 07:28:00,
2013-10-01 02:33:00,68.6,67.8,30.00,North,0,0.0,0.0,97,0.00,,---,0.00,VWS V14.01,2013-10-01 07:33:00,
2013-10-01 02:38:00,68.6,67.8,30.00,North,0,0.0,0.0,97,0.00,,---,0.00,VWS V14.01,2013-10-01 07:38:00,
2013-10-01 02:43:00,68.5,67.6,30.00,North,0,0.0,0.0,97,0.00,,---,0.00,VWS V14.01,2013-10-01 07:43:00,
2013-10-01 02:48:00,68.5,67.6,30.00,North,0,0.0,0.0,97,0.00,,---,0.00,VWS V14.01,2013-10-01 07:48:00,
2013-10-01 02:53:00,68.5,67.6,30.00,North,0,0.0,0.0,97,0.00,,---,0.00,VWS V14.01,2013-10-01 07:53:00,
2013-10-01 02:58:00,68.5,67.6,30.00,North,0,0.0,0.0,97,0.00,,---,0.00,VWS V14.01,2013-10-01 07:58:00,
2013-10-01 03:03:00,68.3,67.1,30.00,North,0,0.0,0.0,96,0.00,,---,0.00,VWS V14.01,2013-10-01 08:03:00,
2013-10-01 03:08:00,68.3,67.1,30.00,North,0,0.0,0.0,96,0.00,,---,0.00,VWS V14.01,2013-10-01 08:08:00,
2013-10-01 03:13:00,68.3,67.1,30.00,North,0,0.0,0.0,96,0.00,,---,0.00,VWS V14.01,2013-10-01 08:13:00,
2013-10-01 03:18:00,68.3,67.4,30.00,North,0,0.0,0.0,97,0.00,,---,0.00,VWS V14.01,2013-10-01 08:18:00,
2013-10-01 03:23:00,68.3,67.4,30.00,North,0,0.0,0.0,97,0.00,,---,0.00,VWS V14.01,2013-10-01 08:23:00,
2013-10-01 03:28:00,68.3,67.4,30.00,North,0,0.0,0.0,97,0.00,,---,0.00,VWS V14.01,2013-10-01 08:28:00,
2013-10-01 03:34:00,68.1,67.2,30.00,North,0,0.0,0.0,97,0.00,,---,0.00,VWS V14.01,2013-10-01 08:34:00,
2013-10-01 03:39:00,68.1,67.2,30.00,North,0,0.0,0.0,97,0.00,,---,0.00,VWS V14.01,2013-10-01 08:39:00,
2013-10-01 03:44:00,68.1,66.9,30.00,North,0,0.0,0.0,96,0.00,,---,0.00,VWS V14.01,2013-10-01 08:44:00,
2013-10-01 03:49:00,68.1,66.9,30.00,North,0,0.0,0.0,96,0.00,,---,0.00,VWS V14.01,2013-10-01 08:49:00,
2013-10-01 03:54:00,68.1,67.2,30.00,North,0,0.0,0.0,97,0.00,,---,0.00,VWS V14.01,2013-10-01 08:54:00,
2013-10-01 03:59:00,67.9,67.0,30.00,North,0,0.0,0.0,97,0.00,,---,0.00,VWS V14.01,2013-10-01 08:59:00,
2013-10-01 04:04:00,67.9,67.0,30.00,North,0,0.0,0.0,97,0.00,,---,0.00,VWS V14.01,2013-10-01 09:04:00,
2013-10-01 04:09:00,67.9,67.0,30.00,North,0,0.0,0.0,97,0.00,,---,0.00,VWS V14.01,2013-10-01 09:09:00,
2013-10-01 04:14:00,67.9,67.0,30.00,North,0,0.0,0.0,97,0.00,,---,0.00,VWS V14.01,2013-10-01 09:14:00,
2013-10-01 04:19:00,67.9,67.0,30.00,North,0,0.0,0.0,97,0.00,,---,0.00,VWS V14.01,2013-10-01 09:19:00,
2013-10-01 04:24:00,67.9,67.0,30.00,North,0,0.0,0.0,97,0.00,,---,0.00,VWS V14.01,2013-10-01 09:24:00,
2013-10-01 04:29:00,67.9,67.0,30.00,North,0,0.0,0.0,97,0.00,,---,0.00,VWS V14.01,2013-10-01 09:29:00,
2013-10-01 04:34:00,67.7,66.9,30.00,North,0,0.0,0.0,97,0.00,,---,0.00,VWS V14.01,2013-10-01 09:34:00,
2013-10-01 04:39:00,67.9,67.0,30.00,North,0,0.0,0.0,97,0.00,,---,0.00,VWS V14.01,2013-10-01 09:39:00,
2013-10-01 04:44:00,67.9,67.0,30.00,North,0,0.0,0.0,97,0.00,,---,0.00,VWS V14.01,2013-10-01 09:44:00,
2013-10-01 04:49:00,67.7,66.9,30.00,North,0,0.0,0.0,97,0.00,,---,0.00,VWS V14.01,2013-10-01 09:49:00,
2013-10-01 04:54:00,67.7,66.9,30.00,North,0,0.0,0.0,97,0.00,,---,0.00,VWS V14.01,2013-10-01 09:54:00,
2013-10-01 04:59:00,67.7,66.9,30.00,North,0,0.0,0.0,97,0.00,,---,0.00,VWS V14.01,2013-10-01 09:59:00,
2013-10-01 05:04:00,67.7,66.9,30.00,North,0,0.0,0.0,97,0.00,,---,0.00,VWS V14.01,2013-10-01 10:04:00,
2013-10-01 05:09:00,67.7,66.9,30.00,North,0,0.0,0.0,97,0.00,,---,0.00,VWS V14.01,2013-10-01 10:09:00,
2013-10-01 05:14:00,67.7,66.9,30.00,North,0,0.0,0.0,97,0.00,,---,0.00,VWS V14.01,2013-10-01 10:14:00,
2013-10-01 05:19:00,67.7,66.9,30.00,North,0,0.0,0.0,97,0.00,,---,0.00,VWS V14.01,2013-10-01 10:19:00,
2013-10-01 05:24:00,67.7,66.9,30.03,North,0,0.0,0.0,97,0.00,,---,0.00,VWS V14.01,2013-10-01 10:24:00,
2013-10-01 05:29:00,67.7,66.9,30.03,North,0,0.0,0.0,97,0.00,,---,0.00,VWS V14.01,2013-10-01 10:29:00,
2013-10-01 05:34:00,67.7,66.9,30.03,North,0,0.0,0.0,97,0.00,,---,0.00,VWS V14.01,2013-10-01 10:34:00,
2013-10-01 05:39:00,67.7,66.9,30.03,North,0,0.0,0.0,97,0.00,,---,0.00,VWS V14.01,2013-10-01 10:39:00,
2013-10-01 05:44:00,67.7,66.9,30.03,North,0,0.0,0.0,97,0.00,,---,0.00,VWS V14.01,2013-10-01 10:44:00,
2013-10-01 05:49:00,67.7,66.9,30.03,North,0,0.0,0.0,97,0.00,,---,0.00,VWS V14.01,2013-10-01 10:49:00,
2013-10-01 05:54:00,67.7,66.9,30.03,ENE,68,0.0,0.0,97,0.00,,---,0.00,VWS V14.01,2013-10-01 10:54:00,
2013-10-01 05:59:00,67.6,66.7,30.03,ENE,68,0.0,0.0,97,0.00,,---,0.00,VWS V14.01,2013-10-01 10:59:00,
2013-10-01 06:04:00,67.6,66.7,30.03,ENE,68,0.0,0.0,97,0.00,,---,0.00,VWS V14.01,2013-10-01 11:04:00,
2013-10-01 06:10:00,67.6,66.7,30.03,ENE,68,0.0,0.0,97,0.00,,---,0.00,VWS V14.01,2013-10-01 11:10:00,
2013-10-01 06:15:00,67.6,66.7,30.03,ENE,68,0.0,0.0,97,0.00,,---,0.00,VWS V14.01,2013-10-01 11:15:00,
2013-10-01 06:20:00,67.6,66.7,30.03,ENE,68,0.0,0.0,97,0.00,,---,0.00,VWS V14.01,2013-10-01 11:20:00,
2013-10-01 06:25:00,67.6,66.7,30.03,ENE,68,0.0,0.0,97,0.00,,---,0.00,VWS V14.01,2013-10-01 11:25:00,
2013-10-01 06:30:00,67.6,66.7,30.03,ENE,68,0.0,0.0,97,0.00,,---,0.00,VWS V14.01,2013-10-01 11:30:00,
2013-10-01 06:35:00,67.6,66.7,30.03,ENE,68,0.0,0.0,97,0.00,,---,0.00,VWS V14.01,2013-10-01 11:35:00,
2013-10-01 06:40:00,67.6,66.7,30.03,ENE,68,0.0,0.0,97,0.00,,---,0.00,VWS V14.01,2013-10-01 11:40:00,
2013-10-01 06:45:00,67.4,66.5,30.03,ENE,68,0.0,0.0,97,0.00,,---,0.00,VWS V14.01,2013-10-01 11:45:00,
2013-10-01 06:50:00,67.4,66.5,30.03,NNW,338,0.0,0.0,97,0.00,,---,0.00,VWS V14.01,2013-10-01 11:50:00,
2013-10-01 06:55:00,67.2,66.3,30.03,NNW,338,0.0,0.0,97,0.00,,---,0.00,VWS V14.01,2013-10-01 11:55:00,
2013-10-01 07:00:00,67.2,66.3,30.03,NNW,338,0.0,0.0,97,0.00,,---,0.00,VWS V14.01,2013-10-01 12:00:00,
2013-10-01 07:05:00,67.0,66.1,30.03,NNW,338,0.0,0.0,97,0.00,,---,0.00,VWS V14.01,2013-10-01 12:05:00,
2013-10-01 07:10:00,67.0,66.1,30.06,NNW,338,0.0,0.0,97,0.00,,---,0.00,VWS V14.01,2013-10-01 12:10:00,
2013-10-01 07:15:00,67.0,66.1,30.06,NNW,338,0.0,0.0,97,0.00,,---,0.00,VWS V14.01,2013-10-01 12:15:00,
2013-10-01 07:20:00,67.0,66.1,30.06,NNW,338,0.0,0.0,97,0.00,,---,0.00,VWS V14.01,2013-10-01 12:20:00,
2013-10-01 07:25:00,67.0,66.1,30.06,NNW,338,0.0,0.0,97,0.00,,---,0.00,VWS V14.01,2013-10-01 12:25:00,
2013-10-01 07:30:00,67.0,66.1,30.06,NNW,338,0.0,0.0,97,0.00,,---,0.00,VWS V14.01,2013-10-01 12:30:00,
2013-10-01 07:36:00,67.0,66.1,30.06,NNW,338,0.0,0.0,97,0.00,,---,0.00,VWS V14.01,2013-10-01 12:36:00,
2013-10-01 07:41:00,67.2,66.3,30.06,NNW,338,0.0,0.0,97,0.00,,---,0.00,VWS V14.01,2013-10-01 12:41:00,
2013-10-01 07:46:00,67.2,66.3,30.06,NNW,338,0.0,0.0,97,0.00,,---,0.00,VWS V14.01,2013-10-01 12:46:00,
2013-10-01 07:51:00,67.2,66.3,30.06,NNW,338,0.0,0.0,97,0.00,,---,0.00,VWS V14.01,2013-10-01 12:51:00,
2013-10-01 07:56:00,67.2,66.3,30.06,NNW,338,0.0,0.0,97,0.00,,---,0.00,VWS V14.01,2013-10-01 12:56:00,
2013-10-01 08:01:00,67.4,66.5,30.06,NNW,338,0.0,0.0,97,0.00,,---,0.00,VWS V14.01,2013-10-01 13:01:00,
2013-10-01 08:06:00,67.6,66.7,30.06,NNW,338,0.0,0.0,97,0.00,,---,0.00,VWS V14.01,2013-10-01 13:06:00,
2013-10-01 08:11:00,67.6,66.7,30.06,NNW,338,0.0,0.0,97,0.00,,---,0.00,VWS V14.01,2013-10-01 13:11:00,
2013-10-01 08:16:00,67.7,66.9,30.06,NNW,338,0.0,0.0,97,0.00,,---,0.00,VWS V14.01,2013-10-01 13:16:00,
2013-10-01 08:21:00,67.9,67.0,30.06,NNW,338,0.0,0.0,97,0.00,,---,0.00,VWS V14.01,2013-10-01 13:21:00,
2013-10-01 08:26:00,68.1,67.2,30.06,NNW,338,0.0,0.0,97,0.00,,---,0.00,VWS V14.01,2013-10-01 13:26:00,
2013-10-01 08:31:00,68.3,67.7,30.06,North,0,0.0,0.0,98,0.00,,---,0.00,VWS V14.01,2013-10-01 13:31:00,
2013-10-01 08:36:00,68.5,67.9,30.06,North,0,0.0,0.0,98,0.00,,---,0.00,VWS V14.01,2013-10-01 13:36:00,
2013-10-01 08:41:00,68.6,68.1,30.06,NNW,338,0.0,0.0,98,0.00,,---,0.00,VWS V14.01,2013-10-01 13:41:00,
2013-10-01 08:46:00,69.0,68.1,30.06,NNW,338,0.0,0.0,97,0.00,,---,0.00,VWS V14.01,2013-10-01 13:46:00,
2013-10-01 08:51:00,69.2,68.6,30.06,NNW,338,0.0,0.0,98,0.00,,---,0.00,VWS V14.01,2013-10-01 13:51:00,
2013-10-01 08:56:00,69.7,69.1,30.09,NNW,338,0.0,0.0,98,0.00,,---,0.00,VWS V14.01,2013-10-01 13:56:00,
2013-10-01 09:01:00,70.4,69.8,30.09,NNW,338,0.0,0.0,98,0.00,,---,0.00,VWS V14.01,2013-10-01 14:01:00,
2013-10-01 09:06:00,71.2,70.6,30.09,NNW,338,0.0,0.0,98,0.00,,---,0.00,VWS V14.01,2013-10-01 14:06:00,
2013-10-01 09:11:00,71.9,71.3,30.09,NE,45,0.0,0.0,98,0.00,,---,0.00,VWS V14.01,2013-10-01 14:11:00,
2013-10-01 09:16:00,72.1,71.5,30.09,ENE,68,0.0,0.0,98,0.00,,---,0.00,VWS V14.01,2013-10-01 14:16:00,
2013-10-01 09:21:00,72.8,71.9,30.09,ENE,68,0.0,0.0,97,0.00,,---,0.00,VWS V14.01,2013-10-01 14:21:00,
2013-10-01 09:26:00,73.0,71.8,30.06,NNE,22,2.5,2.5,96,0.00,,---,0.00,VWS V14.01,2013-10-01 14:26:00,
2013-10-01 09:31:00,73.5,72.0,30.06,ENE,68,0.0,0.9,95,0.00,,---,0.00,VWS V14.01,2013-10-01 14:31:00,
2013-10-01 09:36:00,73.5,71.7,30.06,ENE,68,0.0,0.0,94,0.00,,---,0.00,VWS V14.01,2013-10-01 14:36:00,
2013-10-01 09:41:00,73.9,72.0,30.09,ENE,68,0.0,0.0,94,0.00,,---,0.00,VWS V14.01,2013-10-01 14:41:00,
2013-10-01 09:46:00,74.0,71.9,30.09,NNE,22,0.0,0.0,93,0.00,,---,0.00,VWS V14.01,2013-10-01 14:46:00,
2013-10-01 09:51:00,74.6,72.1,30.09,ENE,68,0.0,2.0,92,0.00,,---,0.00,VWS V14.01,2013-10-01 14:51:00,
2013-10-01 09:56:00,75.1,72.3,30.09,ENE,68,1.1,1.1,91,0.00,,---,0.00,VWS V14.01,2013-10-01 14:56:00,
2013-10-01 10:01:00,75.5,72.3,30.09,ENE,68,1.1,1.1,90,0.00,,---,0.00,VWS V14.01,2013-10-01 15:01:00,
2013-10-01 10:06:00,75.3,71.8,30.09,ENE,68,0.0,0.0,89,0.00,,---,0.00,VWS V14.01,2013-10-01 15:06:00,
2013-10-01 10:11:00,75.3,71.8,30.09,ESE,112,0.0,0.0,89,0.00,,---,0.00,VWS V14.01,2013-10-01 15:11:00,
2013-10-01 10:16:00,75.5,72.0,30.09,SSE,158,0.0,0.0,89,0.00,,---,0.00,VWS V14.01,2013-10-01 15:16:00,
2013-10-01 10:21:00,75.7,71.9,30.09,SSW,202,0.0,0.0,88,0.00,,---,0.00,VWS V14.01,2013-10-01 15:21:00,
2013-10-01 10:26:00,75.8,72.0,30.09,SSE,158,2.0,2.0,88,0.00,,---,0.00,VWS V14.01,2013-10-01 15:26:00,
2013-10-01 10:31:00,76.4,72.2,30.09,NNE,22,3.1,3.1,87,0.00,,---,0.00,VWS V14.01,2013-10-01 15:31:00,
2013-10-01 10:36:00,76.7,71.2,30.09,WNW,292,0.0,0.0,83,0.00,,---,0.00,VWS V14.01,2013-10-01 15:36:00,
2013-10-01 10:42:00,77.1,71.5,30.09,SSW,202,0.0,1.1,83,0.00,,---,0.00,VWS V14.01,2013-10-01 15:42:00,
2013-10-01 10:47:00,77.3,72.4,30.09,SE,135,0.9,2.0,85,0.00,,---,0.00,VWS V14.01,2013-10-01 15:47:00,
2013-10-01 10:52:00,77.6,72.1,30.09,WSW,248,0.0,0.0,83,0.00,,---,0.00,VWS V14.01,2013-10-01 15:52:00,
2013-10-01 10:57:00,77.8,72.6,30.09,ESE,112,2.9,2.9,84,0.00,,---,0.00,VWS V14.01,2013-10-01 15:57:00,
2013-10-01 11:02:00,78.0,72.1,30.09,ENE,68,1.1,1.6,82,0.00,,---,0.00,VWS V14.01,2013-10-01 16:02:00,
2013-10-01 11:07:00,78.2,72.2,30.09,SSW,202,2.9,2.9,82,0.00,,---,0.00,VWS V14.01,2013-10-01 16:07:00,
2013-10-01 11:12:00,78.4,70.9,30.09,NE,45,0.0,2.2,78,0.00,,---,0.00,VWS V14.01,2013-10-01 16:12:00,
2013-10-01 11:17:00,78.4,71.3,30.09,WNW,292,0.0,0.0,79,0.00,,---,0.00,VWS V14.01,2013-10-01 16:17:00,
2013-10-01 11:22:00,78.7,71.3,30.09,NE,45,0.0,0.0,78,0.00,,---,0.00,VWS V14.01,2013-10-01 16:22:00,
2013-10-01 11:27:00,79.4,72.0,30.09,ESE,112,2.7,2.7,78,0.00,,---,0.00,VWS V14.01,2013-10-01 16:27:00,
2013-10-01 11:31:00,79.8,72.3,30.09,NE,45,0.0,0.0,78,0.00,,---,0.00,VWS V14.01,2013-10-01 16:31:00,
2013-10-01 11:36:00,80.5,71.9,30.09,SSE,158,2.0,3.6,75,0.00,,---,0.00,VWS V14.01,2013-10-01 16:36:00,
2013-10-01 11:41:00,81.1,71.6,30.09,SSW,202,2.2,3.6,73,0.00,,---,0.00,VWS V14.01,2013-10-01 16:41:00,
2013-10-01 11:46:00,81.4,72.3,30.09,SSW,202,1.6,5.4,74,0.00,,---,0.00,VWS V14.01,2013-10-01 16:46:00,
2013-10-01 11:51:00,81.4,71.1,30.09,SSE,158,2.9,3.8,71,0.00,,---,0.00,VWS V14.01,2013-10-01 16:51:00,
2013-10-01 11:56:00,81.6,69.2,30.06,SSE,158,1.1,2.0,66,0.00,,---,0.00,VWS V14.01,2013-10-01 16:56:00,
2013-10-01 12:01:00,81.8,69.8,30.06,NNE,22,0.0,1.3,67,0.00,,---,0.00,VWS V14.01,2013-10-01 17:01:00,
2013-10-01 12:06:00,81.4,70.3,30.06,SE,135,0.9,2.5,69,0.00,,---,0.00,VWS V14.01,2013-10-01 17:06:00,
2013-10-01 12:11:00,81.2,70.5,30.06,SSE,158,4.3,4.3,70,0.00,,---,0.00,VWS V14.01,2013-10-01 17:11:00,
2013-10-01 12:16:00,81.8,70.2,30.06,ESE,112,1.6,3.4,68,0.00,,---,0.00,VWS V14.01,2013-10-01 17:16:00,
2013-10-01 12:21:00,82.3,70.7,30.06,ESE,112,2.0,3.1,68,0.00,,---,0.00,VWS V14.01,2013-10-01 17:21:00,
2013-10-01 12:26:00,82.5,70.4,30.09,ENE,68,2.5,2.5,67,0.00,,---,0.00,VWS V14.01,2013-10-01 17:26:00,
2013-10-01 12:31:00,82.0,69.1,30.09,ENE,68,1.6,2.9,65,0.00,,---,0.00,VWS V14.01,2013-10-01 17:31:00,
2013-10-01 12:36:00,82.3,68.9,30.09,SE,135,1.6,2.5,64,0.00,,---,0.00,VWS V14.01,2013-10-01 17:36:00,
2013-10-01 12:41:00,82.9,69.9,30.06,SW,225,1.6,2.9,65,0.00,,---,0.00,VWS V14.01,2013-10-01 17:41:00,
2013-10-01 12:46:00,83.2,69.3,30.06,ESE,112,0.0,0.0,63,0.00,,---,0.00,VWS V14.01,2013-10-01 17:46:00,
2013-10-01 12:51:00,83.8,69.8,30.06,NE,45,0.0,2.0,63,0.00,,---,0.00,VWS V14.01,2013-10-01 17:51:00,
2013-10-01 12:56:00,83.9,70.5,30.06,ENE,68,2.0,2.0,64,0.00,,---,0.00,VWS V14.01,2013-10-01 17:56:00,
2013-10-01 13:01:00,83.4,67.6,30.06,SE,135,2.5,3.6,59,0.00,,---,0.00,VWS V14.01,2013-10-01 18:01:00,
2013-10-01 13:06:00,83.6,68.7,30.06,NE,45,1.6,1.6,61,0.00,,---,0.00,VWS V14.01,2013-10-01 18:06:00,
2013-10-01 13:11:00,83.6,67.3,30.06,ESE,112,1.6,1.6,58,0.00,,---,0.00,VWS V14.01,2013-10-01 18:11:00,
2013-10-01 13:16:00,83.9,68.1,30.06,WSW,248,1.3,3.1,59,0.00,,---,0.00,VWS V14.01,2013-10-01 18:16:00,
2013-10-01 13:22:00,84.1,68.3,30.06,North,0,1.6,1.6,59,0.00,,---,0.00,VWS V14.01,2013-10-01 18:22:00,
2013-10-01 13:27:00,84.5,70.0,30.06,SSE,158,3.1,3.1,62,0.00,,---,0.00,VWS V14.01,2013-10-01 18:27:00,
2013-10-01 13:32:00,84.8,69.4,30.06,NE,45,2.5,2.5,60,0.00,,---,0.00,VWS V14.01,2013-10-01 18:32:00,
2013-10-01 13:37:00,85.0,70.1,30.06,SSE,158,1.3,4.7,61,0.00,,---,0.00,VWS V14.01,2013-10-01 18:37:00,
2013-10-01 13:42:00,85.6,69.6,30.03,WSW,248,3.1,3.1,59,0.00,,---,0.00,VWS V14.01,2013-10-01 18:42:00,
2013-10-01 13:47:00,85.6,69.1,30.03,NE,45,1.3,1.6,58,0.00,,---,0.00,VWS V14.01,2013-10-01 18:47:00,
2013-10-01 13:52:00,85.4,68.9,30.03,ENE,68,2.2,2.2,58,0.00,,---,0.00,VWS V14.01,2013-10-01 18:52:00,
2013-10-01 13:57:00,84.1,67.8,30.03,ENE,68,1.3,1.3,58,0.00,,---,0.00,VWS V14.01,2013-10-01 18:57:00,
2013-10-01 14:02:00,83.9,68.6,30.03,ENE,68,0.0,0.0,60,0.00,,---,0.00,VWS V14.01,2013-10-01 19:02:00,
2013-10-01 14:07:00,83.6,68.2,30.03,SSW,202,0.0,0.9,60,0.00,,---,0.00,VWS V14.01,2013-10-01 19:07:00,
2013-10-01 14:12:00,83.4,68.1,30.03,ENE,68,1.3,1.3,60,0.00,,---,0.00,VWS V14.01,2013-10-01 19:12:00,
2013-10-01 14:18:00,83.2,69.3,30.03,NE,45,1.1,1.1,63,0.00,,---,0.00,VWS V14.01,2013-10-01 19:18:00,
2013-10-01 14:23:00,82.3,69.4,30.03,ENE,68,1.6,1.6,65,0.00,,---,0.00,VWS V14.01,2013-10-01 19:23:00,
2013-10-01 14:28:00,82.0,68.6,30.03,North,0,0.0,0.0,64,0.00,,---,0.00,VWS V14.01,2013-10-01 19:28:00,
2013-10-01 14:33:00,82.0,69.1,30.03,NNE,22,0.0,0.0,65,0.00,,---,0.00,VWS V14.01,2013-10-01 19:33:00,
2013-10-01 14:38:00,82.3,68.9,30.03,NW,315,0.9,1.1,64,0.00,,---,0.00,VWS V14.01,2013-10-01 19:38:00,
2013-10-01 14:43:00,82.7,68.8,30.03,NNE,22,1.3,1.3,63,0.00,,---,0.00,VWS V14.01,2013-10-01 19:43:00,
2013-10-01 14:48:00,82.9,69.0,30.03,SSW,202,2.5,2.5,63,0.00,,---,0.00,VWS V14.01,2013-10-01 19:48:00,
2013-10-01 14:53:00,83.4,69.5,30.03,North,0,0.0,1.1,63,0.00,,---,0.00,VWS V14.01,2013-10-01 19:53:00,
2013-10-01 14:58:00,83.0,69.2,30.03,NNE,22,0.0,0.0,63,0.00,,---,0.00,VWS V14.01,2013-10-01 19:58:00,
2013-10-01 15:03:00,82.9,69.4,30.03,North,0,0.0,0.0,64,0.00,,---,0.00,VWS V14.01,2013-10-01 20:03:00,
2013-10-01 15:08:00,82.7,69.3,30.03,SSE,158,0.9,0.9,64,0.00,,---,0.00,VWS V14.01,2013-10-01 20:08:00,
2013-10-01 15:13:00,82.7,69.3,30.03,NE,45,1.1,1.1,64,0.00,,---,0.00,VWS V14.01,2013-10-01 20:13:00,
2013-10-01 15:18:00,81.6,68.7,30.03,ENE,68,0.0,0.0,65,0.00,,---,0.00,VWS V14.01,2013-10-01 20:18:00,
2013-10-01 15:23:00,81.6,69.2,30.03,ENE,68,0.0,0.0,66,0.00,,---,0.00,VWS V14.01,2013-10-01 20:23:00,
2013-10-01 15:28:00,81.6,69.2,30.03,NNE,22,0.0,0.0,66,0.00,,---,0.00,VWS V14.01,2013-10-01 20:28:00,
2013-10-01 15:33:00,81.6,69.2,30.03,NE,45,1.1,1.1,66,0.00,,---,0.00,VWS V14.01,2013-10-01 20:33:00,
2013-10-01 15:38:00,81.2,69.2,30.03,NNE,22,0.0,0.0,67,0.00,,---,0.00,VWS V14.01,2013-10-01 20:38:00,
2013-10-01 15:43:00,81.4,70.3,30.03,NNE,22,0.0,0.0,69,0.00,,---,0.00,VWS V14.01,2013-10-01 20:43:00,
2013-10-01 15:48:00,81.4,69.8,30.03,North,0,0.0,0.0,68,0.00,,---,0.00,VWS V14.01,2013-10-01 20:48:00,
2013-10-01 15:53:00,81.6,70.4,30.03,NNE,22,0.0,1.3,69,0.00,,---,0.00,VWS V14.01,2013-10-01 20:53:00,
2013-10-01 15:58:00,81.6,70.0,30.03,NE,45,0.0,0.0,68,0.00,,---,0.00,VWS V14.01,2013-10-01 20:58:00,
2013-10-01 16:03:00,81.4,70.3,30.03,NE,45,0.0,0.0,69,0.00,,---,0.00,VWS V14.01,2013-10-01 21:03:00,
2013-10-01 16:08:00,81.1,69.5,30.03,ENE,68,1.6,2.0,68,0.00,,---,0.00,VWS V14.01,2013-10-01 21:08:00,
2013-10-01 16:13:00,80.9,69.3,30.00,WNW,292,0.0,0.0,68,0.00,,---,0.00,VWS V14.01,2013-10-01 21:13:00,
2013-10-01 16:18:00,80.7,69.2,30.00,North,0,0.0,0.0,68,0.00,,---,0.00,VWS V14.01,2013-10-01 21:18:00,
2013-10-01 16:23:00,80.5,69.4,30.03,North,0,0.0,0.0,69,0.00,,---,0.00,VWS V14.01,2013-10-01 21:23:00,
2013-10-01 16:29:00,80.5,69.4,30.03,NNE,22,0.0,0.0,69,0.00,,---,0.00,VWS V14.01,2013-10-01 21:29:00,
2013-10-01 16:34:00,80.3,69.7,30.03,NNE,22,0.0,0.0,70,0.00,,---,0.00,VWS V14.01,2013-10-01 21:34:00,
2013-10-01 16:39:00,80.0,69.3,30.00,NNE,22,0.0,0.0,70,0.00,,---,0.00,VWS V14.01,2013-10-01 21:39:00,
2013-10-01 16:44:00,80.0,69.7,30.00,NNE,22,0.0,0.0,71,0.00,,---,0.00,VWS V14.01,2013-10-01 21:44:00,
2013-10-01 16:49:00,79.8,70.0,30.00,NNE,22,0.0,0.0,72,0.00,,---,0.00,VWS V14.01,2013-10-01 21:49:00,
2013-10-01 16:54:00,79.6,70.2,30.03,NNE,22,0.0,0.0,73,0.00,,---,0.00,VWS V14.01,2013-10-01 21:54:00,
2013-10-01 16:59:00,79.6,70.2,30.03,NNE,22,0.0,0.0,73,0.00,,---,0.00,VWS V14.01,2013-10-01 21:59:00,
2013-10-01 17:04:00,79.4,70.4,30.03,NNE,22,0.0,0.0,74,0.00,,---,0.00,VWS V14.01,2013-10-01 22:04:00,
2013-10-01 17:09:00,79.4,70.8,30.03,NNE,22,0.0,0.0,75,0.00,,---,0.00,VWS V14.01,2013-10-01 22:09:00,
2013-10-01 17:14:00,79.3,70.7,30.03,North,0,0.0,0.0,75,0.00,,---,0.00,VWS V14.01,2013-10-01 22:14:00,
2013-10-01 17:19:00,78.9,70.7,30.03,North,0,0.0,0.0,76,0.00,,---,0.00,VWS V14.01,2013-10-01 22:19:00,
2013-10-01 17:24:00,78.9,70.7,30.03,North,0,0.0,0.0,76,0.00,,---,0.00,VWS V14.01,2013-10-01 22:24:00,
2013-10-01 17:29:00,78.5,70.7,30.03,North,0,0.0,0.0,77,0.00,,---,0.00,VWS V14.01,2013-10-01 22:29:00,
2013-10-01 17:34:00,78.5,70.7,30.03,North,0,0.0,0.0,77,0.00,,---,0.00,VWS V14.01,2013-10-01 22:34:00,
2013-10-01 17:39:00,78.4,70.6,30.03,North,0,0.0,0.0,77,0.00,,---,0.00,VWS V14.01,2013-10-01 22:39:00,
2013-10-01 17:44:00,78.2,70.4,30.03,North,0,0.0,0.0,77,0.00,,---,0.00,VWS V14.01,2013-10-01 22:44:00,
2013-10-01 17:49:00,78.0,70.2,30.03,North,0,0.0,0.0,77,0.00,,---,0.00,VWS V14.01,2013-10-01 22:49:00,
2013-10-01 17:54:00,77.8,70.4,30.03,North,0,0.0,0.0,78,0.00,,---,0.00,VWS V14.01,2013-10-01 22:54:00,
2013-10-01 17:59:00,77.5,70.1,30.03,North,0,0.0,0.0,78,0.00,,---,0.00,VWS V14.01,2013-10-01 22:59:00,
2013-10-01 18:04:00,77.3,69.9,30.03,North,0,0.0,0.0,78,0.00,,---,0.00,VWS V14.01,2013-10-01 23:04:00,
2013-10-01 18:09:00,77.3,70.3,30.03,North,0,0.0,0.0,79,0.00,,---,0.00,VWS V14.01,2013-10-01 23:09:00,
2013-10-01 18:15:00,77.1,70.1,30.03,North,0,0.0,0.0,79,0.00,,---,0.00,VWS V14.01,2013-10-01 23:15:00,
2013-10-01 18:20:00,76.7,69.7,30.03,North,0,0.0,0.0,79,0.00,,---,0.00,VWS V14.01,2013-10-01 23:20:00,
2013-10-01 18:25:00,76.6,69.9,30.03,North,0,0.0,0.0,80,0.00,,---,0.00,VWS V14.01,2013-10-01 23:25:00,
2013-10-01 18:30:00,76.4,69.8,30.03,North,0,0.0,0.0,80,0.00,,---,0.00,VWS V14.01,2013-10-01 23:30:00,
2013-10-01 18:35:00,76.2,69.9,30.03,North,0,0.0,0.0,81,0.00,,---,0.00,VWS V14.01,2013-10-01 23:35:00,
2013-10-01 18:40:00,76.0,70.1,30.03,North,0,0.0,0.0,82,0.00,,---,0.00,VWS V14.01,2013-10-01 23:40:00,
2013-10-01 18:45:00,75.8,70.0,30.03,North,0,0.0,0.0,82,0.00,,---,0.00,VWS V14.01,2013-10-01 23:45:00,
2013-10-01 18:50:00,75.7,70.1,30.03,North,0,0.0,0.0,83,0.00,,---,0.00,VWS V14.01,2013-10-01 23:50:00,
2013-10-01 18:55:00,75.7,70.5,30.03,North,0,0.0,0.0,84,0.00,,---,0.00,VWS V14.01,2013-10-01 23:55:00,
2013-10-01 19:00:00,75.5,70.7,30.03,North,0,0.0,0.0,85,0.00,,---,0.00,VWS V14.01,2013-10-02 00:00:00,
2013-10-01 19:05:00,75.3,70.5,30.03,North,0,0.0,0.0,85,0.00,,---,0.00,VWS V14.01,2013-10-02 00:05:00,
2013-10-01 19:10:00,75.3,70.5,30.03,North,0,0.0,0.0,85,0.00,,---,0.00,VWS V14.01,2013-10-02 00:10:00,
2013-10-01 19:15:00,75.1,70.7,30.03,North,0,0.0,0.0,86,0.00,,---,0.00,VWS V14.01,2013-10-02 00:15:00,
2013-10-01 19:17:00,74.9,70.5,30.03,North,0,0.0,0.0,86,0.00,,---,0.00,VWS V14.01,2013-10-02 00:17:00,
2013-10-01 19:22:00,74.9,70.5,30.03,North,0,0.0,0.0,86,0.00,,---,0.00,VWS V14.01,2013-10-02 00:22:00,
2013-10-01 19:27:00,74.8,70.6,30.03,North,0,0.0,0.0,87,0.00,,---,0.00,VWS V14.01,2013-10-02 00:27:00,
2013-10-01 19:32:00,74.8,70.6,30.03,North,0,0.0,0.0,87,0.00,,---,0.00,VWS V14.01,2013-10-02 00:32:00,
2013-10-01 19:37:00,74.6,70.5,30.03,North,0,0.0,0.0,87,0.00,,---,0.00,VWS V14.01,2013-10-02 00:37:00,
2013-10-01 19:42:00,74.4,69.9,30.03,North,0,0.0,0.0,86,0.00,,---,0.00,VWS V14.01,2013-10-02 00:42:00,
2013-10-01 19:47:00,74.4,70.3,30.03,North,0,0.0,0.0,87,0.00,,---,0.00,VWS V14.01,2013-10-02 00:47:00,
2013-10-01 19:52:00,74.2,70.4,30.03,North,0,0.0,0.0,88,0.00,,---,0.00,VWS V14.01,2013-10-02 00:52:00,
2013-10-01 19:57:00,74.2,70.4,30.03,North,0,0.0,0.0,88,0.00,,---,0.00,VWS V14.01,2013-10-02 00:57:00,
2013-10-01 20:02:00,74.0,70.3,30.03,North,0,0.0,0.0,88,0.00,,---,0.00,VWS V14.01,2013-10-02 01:02:00,
2013-10-01 20:07:00,74.0,70.6,30.03,North,0,0.0,0.0,89,0.00,,---,0.00,VWS V14.01,2013-10-02 01:07:00,
2013-10-01 20:12:00,74.0,70.6,30.03,North,0,0.0,0.0,89,0.00,,---,0.00,VWS V14.01,2013-10-02 01:12:00,
2013-10-01 20:17:00,73.9,70.4,30.03,North,0,0.0,0.0,89,0.00,,---,0.00,VWS V14.01,2013-10-02 01:17:00,
2013-10-01 20:22:00,73.9,70.4,30.03,North,0,0.0,0.0,89,0.00,,---,0.00,VWS V14.01,2013-10-02 01:22:00,
2013-10-01 20:27:00,73.7,70.6,30.03,North,0,0.0,0.0,90,0.00,,---,0.00,VWS V14.01,2013-10-02 01:27:00,
2013-10-01 20:32:00,73.7,70.6,30.03,North,0,0.0,0.0,90,0.00,,---,0.00,VWS V14.01,2013-10-02 01:32:00,
2013-10-01 20:37:00,73.7,70.6,30.03,North,0,0.0,0.0,90,0.00,,---,0.00,VWS V14.01,2013-10-02 01:37:00,
2013-10-01 20:42:00,73.7,70.9,30.03,North,0,0.0,0.0,91,0.00,,---,0.00,VWS V14.01,2013-10-02 01:42:00,
2013-10-01 20:47:00,73.5,70.7,30.03,North,0,0.0,0.0,91,0.00,,---,0.00,VWS V14.01,2013-10-02 01:47:00,
2013-10-01 20:52:00,73.5,70.7,30.03,North,0,0.0,0.0,91,0.00,,---,0.00,VWS V14.01,2013-10-02 01:52:00,
2013-10-01 20:57:00,73.5,70.7,30.06,SSE,158,2.5,2.5,91,0.00,,---,0.00,VWS V14.01,2013-10-02 01:57:00,
2013-10-01 21:02:00,73.5,70.7,30.06,ESE,112,0.0,0.0,91,0.00,,---,0.00,VWS V14.01,2013-10-02 02:02:00,
2013-10-01 21:07:00,73.3,70.5,30.06,South,180,0.0,0.0,91,0.00,,---,0.00,VWS V14.01,2013-10-02 02:07:00,
2013-10-01 21:12:00,73.3,70.5,30.06,South,180,0.0,0.0,91,0.00,,---,0.00,VWS V14.01,2013-10-02 02:12:00,
2013-10-01 21:17:00,73.3,70.5,30.06,South,180,0.0,0.0,91,0.00,,---,0.00,VWS V14.01,2013-10-02 02:17:00,
2013-10-01 21:22:00,73.3,70.9,30.06,South,180,0.0,0.0,92,0.00,,---,0.00,VWS V14.01,2013-10-02 02:22:00,
2013-10-01 21:27:00,73.3,70.5,30.06,ESE,112,0.0,0.0,91,0.00,,---,0.00,VWS V14.01,2013-10-02 02:27:00,
2013-10-01 21:32:00,73.3,70.5,30.06,ESE,112,0.0,0.0,91,0.00,,---,0.00,VWS V14.01,2013-10-02 02:32:00,
2013-10-01 21:37:00,73.1,70.4,30.06,ESE,112,0.0,0.0,91,0.00,,---,0.00,VWS V14.01,2013-10-02 02:37:00,
2013-10-01 21:42:00,73.1,70.7,30.06,ESE,112,0.0,0.0,92,0.00,,---,0.00,VWS V14.01,2013-10-02 02:42:00,
2013-10-01 21:47:00,73.1,70.7,30.06,ESE,112,0.0,0.0,92,0.00,,---,0.00,VWS V14.01,2013-10-02 02:47:00,
2013-10-01 21:52:00,73.1,70.7,30.06,ESE,112,0.0,0.0,92,0.00,,---,0.00,VWS V14.01,2013-10-02 02:52:00,
2013-10-01 21:57:00,73.1,70.7,30.06,ESE,112,0.0,0.0,92,0.00,,---,0.00,VWS V14.01,2013-10-02 02:57:00,
2013-10-01 22:02:00,73.1,70.7,30.06,SE,135,0.0,0.0,92,0.00,,---,0.00,VWS V14.01,2013-10-02 03:02:00,
2013-10-01 22:07:00,73.0,70.5,30.06,SSE,158,0.0,0.0,92,0.00,,---,0.00,VWS V14.01,2013-10-02 03:07:00,
2013-10-01 22:12:00,73.0,70.5,30.06,SSE,158,0.0,0.0,92,0.00,,---,0.00,VWS V14.01,2013-10-02 03:12:00,
2013-10-01 22:17:00,73.0,70.5,30.06,SSE,158,0.0,0.0,92,0.00,,---,0.00,VWS V14.01,2013-10-02 03:17:00,
2013-10-01 22:22:00,73.0,70.5,30.06,ESE,112,0.0,0.0,92,0.00,,---,0.00,VWS V14.01,2013-10-02 03:22:00,
2013-10-01 22:27:00,72.8,70.3,30.06,ESE,112,0.0,0.0,92,0.00,,---,0.00,VWS V14.01,2013-10-02 03:27:00,
2013-10-01 22:32:00,72.8,70.3,30.06,ESE,112,0.0,0.0,92,0.00,,---,0.00,VWS V14.01,2013-10-02 03:32:00,
2013-10-01 22:37:00,72.8,70.3,30.06,ESE,112,0.0,0.0,92,0.00,,---,0.00,VWS V14.01,2013-10-02 03:37:00,
2013-10-01 22:42:00,72.8,70.6,30.06,ESE,112,0.0,0.0,93,0.00,,---,0.00,VWS V14.01,2013-10-02 03:42:00,
2013-10-01 22:47:00,72.8,70.6,30.06,ESE,112,0.0,0.0,93,0.00,,---,0.00,VWS V14.01,2013-10-02 03:47:00,
2013-10-01 22:52:00,72.6,70.5,30.06,ESE,112,0.0,0.0,93,0.00,,---,0.00,VWS V14.01,2013-10-02 03:52:00,
2013-10-01 22:57:00,72.6,70.5,30.06,ESE,112,0.0,0.0,93,0.00,,---,0.00,VWS V14.01,2013-10-02 03:57:00,
2013-10-01 23:01:00,72.6,70.5,30.06,ESE,112,0.0,0.0,93,0.00,,---,0.00,VWS V14.01,2013-10-02 04:01:00,
2013-10-01 23:02:00,72.6,70.5,30.06,ESE,112,0.0,0.0,93,0.00,,---,0.00,VWS V14.01,2013-10-02 04:02:00,
2013-10-01 23:03:00,72.6,70.5,30.06,ESE,112,0.0,0.0,93,0.00,,---,0.00,VWS V14.01,2013-10-02 04:03:00,
2013-10-01 23:08:00,72.6,70.8,30.06,ESE,112,0.0,0.0,94,0.00,,---,0.00,VWS V14.01,2013-10-02 04:08:00,
2013-10-01 23:13:00,72.6,70.5,30.06,ESE,112,0.0,0.0,93,0.00,,---,0.00,VWS V14.01,2013-10-02 04:13:00,
2013-10-01 23:18:00,72.4,70.6,30.06,ESE,112,0.0,0.0,94,0.00,,---,0.00,VWS V14.01,2013-10-02 04:18:00,
2013-10-01 23:23:00,72.4,70.6,30.06,ESE,112,0.0,0.0,94,0.00,,---,0.00,VWS V14.01,2013-10-02 04:23:00,
2013-10-01 23:28:00,72.4,70.6,30.06,ESE,112,0.0,0.0,94,0.00,,---,0.00,VWS V14.01,2013-10-02 04:28:00,
2013-10-01 23:33:00,72.4,70.6,30.06,ESE,112,0.0,0.0,94,0.00,,---,0.00,VWS V14.01,2013-10-02 04:33:00,
2013-10-01 23:38:00,72.4,70.6,30.06,ESE,112,0.0,0.0,94,0.00,,---,0.00,VWS V14.01,2013-10-02 04:38:00,
2013-10-01 23:43:00,72.2,70.4,30.06,ESE,112,0.0,0.0,94,0.00,,---,0.00,VWS V14.01,2013-10-02 04:43:00,
2013-10-01 23:48:00,72.2,70.4,30.06,SSE,158,0.0,0.0,94,0.00,,---,0.00,VWS V14.01,2013-10-02 04:48:00,
2013-10-01 23:53:00,72.1,70.2,30.06,SSE,158,0.0,0.0,94,0.00,,---,0.00,VWS V14.01,2013-10-02 04:53:00,
2013-10-01 23:58:00,72.1,70.2,30.06,SSE,158,0.0,0.0,94,0.00,,---,0.00,VWS V14.01,2013-10-02 04:58:00,